KC0VVH Weather Reports


time (UTC)temp
C
wind
direction
speed
KPH
gust
KPH
rain 1hr
cm
rain 24hr
cm
rain mn
cm
humidity
%
barometer
mb
20260506004515 15 295 11.3 27.4 0.00 0.00 0.00 38 1017.9
20260506003636 15 309 12.9 25.7 0.00 0.00 0.00 38 1017.9
20260506002715 16 309 9.7 29.0 0.00 0.00 0.00 37 1017.9
20260506001803 16 304 8.0 25.7 0.00 0.00 0.00 37 1017.9
20260506000915 16 311 11.3 25.7 0.00 0.00 0.00 38 1017.9
20260506000015 16 322 8.0 25.7 0.00 0.00 0.00 37 1017.9
20260505235436 16 323 11.3 33.8 0.00 0.00 0.00 36 1017.9
20260505234515 17 350 12.9 30.6 0.00 0.00 0.00 35 1017.9
20260505233615 18 326 14.5 33.8 0.00 0.00 0.00 32 1017.9
20260505232703 21 315 3.2 32.2 0.00 0.00 0.00 10 1017.9
20260505231803 21 276 3.2 17.7 0.00 0.00 0.00 8 1017.9
20260505230936 22 268 3.2 17.7 0.00 0.00 0.00 8 1017.9
20260505230015 22 252 3.2 17.7 0.00 0.00 0.00 8 1017.9
20260505225415 22 238 3.2 16.1 0.00 0.00 0.00 8 1017.9
20260505224503 22 272 6.4 20.9 0.00 0.00 0.00 9 1017.9
20260505223636 22 321 4.8 20.9 0.00 0.00 0.00 9 1017.9
20260505222736 21 235 3.2 27.4 0.00 0.00 0.00 9 1017.9
20260505221824 21 294 3.2 12.9 0.00 0.00 0.00 8 1017.9
20260505220915 22 302 3.2 22.5 0.00 0.00 0.00 9 1017.9
20260505220024 21 293 4.8 24.1 0.00 0.00 0.00 8 1017.9
20260505215415 21 300 4.8 24.1 0.00 0.00 0.00 8 1017.9
20260505214515 21 271 4.8 20.9 0.00 0.00 0.00 8 1017.9
20260505213615 22 255 4.8 20.9 0.00 0.00 0.00 7 1017.9
20260505212715 22 290 3.2 16.1 0.00 0.00 0.00 7 1017.9
20260505211815 21 256 3.2 16.1 0.00 0.00 0.00 8 1017.9
20260505210915 22 274 1.6 14.5 0.00 0.00 0.00 9 1017.9
20260505210015 22 229 3.2 14.5 0.00 0.00 0.00 9 1017.9
20260505205415 22 256 4.8 17.7 0.00 0.00 0.00 9 1017.9
20260505204515 22 312 3.2 17.7 0.00 0.00 0.00 10 1017.9
20260505203603 22 282 4.8 19.3 0.00 0.00 0.00 10 1017.9
20260505202715 22 297 3.2 16.1 0.00 0.00 0.00 10 1017.9
20260505201803 22 268 4.8 24.1 0.00 0.00 0.00 11 1017.9
20260505200903 22 245 3.2 20.9 0.00 0.00 0.00 10 1017.9
20260505200003 22 309 6.4 29.0 0.00 0.00 0.00 11 1017.9
20260505195415 22 314 8.0 29.0 0.00 0.00 0.00 11 1017.9
20260505194503 22 227 1.6 16.1 0.00 0.00 0.00 12 1017.9
20260505193615 21 294 3.2 22.5 0.00 0.00 0.00 13 1017.9
20260505192715 21 251 3.2 22.5 0.00 0.00 0.00 13 1017.9
20260505191815 21 315 4.8 25.7 0.00 0.00 0.00 14 1017.9
20260505190903 21 314 3.2 27.4 0.00 0.00 0.00 15 1017.9
20260505190015 21 296 4.8 30.6 0.00 0.00 0.00 16 1017.9
20260505185436 21 220 4.8 16.1 0.00 0.00 0.00 15 1017.9
20260505184515 21 281 4.8 24.1 0.00 0.00 0.00 15 1017.9
20260505183603 21 273 4.8 19.3 0.00 0.00 0.00 15 1017.9
20260505182715 21 324 6.4 24.1 0.00 0.00 0.00 15 1017.9
20260505181824 21 293 4.8 27.4 0.00 0.00 0.00 15 1017.9
20260505180915 20 198 3.2 22.5 0.00 0.00 0.00 16 1017.9
20260505180036 20 218 9.7 25.7 0.00 0.00 0.00 16 1017.9
20260505175403 20 314 8.0 25.7 0.00 0.00 0.00 16 1017.9
20260505174503 20 347 4.8 24.1 0.00 0.00 0.00 21 1017.9
20260505173615 19 91 1.6 9.7 0.00 0.00 0.00 28 1017.9
20260505172715 19 318 3.2 12.9 0.00 0.00 0.00 33 1017.9
20260505171815 19 70 6.4 16.1 0.00 0.00 0.00 33 1017.9
20260505170915 18 71 3.2 14.5 0.00 0.00 0.00 34 1017.9
20260505170003 18 71 3.2 9.7 0.00 0.00 0.00 35 1017.9
20260505165403 19 71 3.2 9.7 0.00 0.00 0.00 36 1017.9
20260505164515 18 71 1.6 8.0 0.00 0.00 0.00 36 1017.9
20260505163615 18 71 1.6 14.5 0.00 0.00 0.00 38 1017.9
20260505162715 18 74 3.2 14.5 0.00 0.00 0.00 36 1017.9
20260505161836 17 75 1.6 11.3 0.00 0.00 0.00 35 1017.9
20260505160924 17 76 1.6 8.0 0.00 0.00 0.00 39 1017.9
20260505152715 16 193 0.0 4.8 0.00 0.00 0.00 46 1017.9
20260505151815 16 193 0.0 4.8 0.00 0.00 0.00 48 1017.9
20260505150915 16 194 1.6 8.0 0.00 0.00 0.00 49 1017.9
20260505124536 10 0 0.0 0.0 0.00 0.00 0.00 58 1017.9
20260505123615 10 0 0.0 0.0 0.00 0.00 0.00 63 1017.9
20260505122703 10 0 0.0 1.6 0.00 0.00 0.00 62 1017.9
20260505121815 10 0 0.0 0.0 0.00 0.00 0.00 47 1017.9
20260505120903 11 205 1.6 8.0 0.00 0.00 0.00 48 1017.9
20260505120015 11 205 1.6 8.0 0.00 0.00 0.00 62 1017.9
20260505115415 11 205 1.6 6.4 0.00 0.00 0.00 63 1017.9
20260505114515 11 205 1.6 8.0 0.00 0.00 0.00 64 1017.9
20260505113615 11 205 1.6 9.7 0.00 0.00 0.00 64 1017.9
20260505112715 11 207 4.8 11.3 0.00 0.00 0.00 64 1017.9
20260505111803 11 214 1.6 11.3 0.00 0.00 0.00 65 1017.9
20260505110915 11 215 0.0 6.4 0.00 0.00 0.00 65 1017.9
20260505101815 11 189 0.0 4.8 0.00 0.00 0.00 62 1017.9
20260505100915 12 189 0.0 4.8 0.00 0.00 0.00 61 1017.9
20260505100024 12 190 0.0 4.8 0.00 0.00 0.00 59 1017.9
20260505095415 12 181 3.2 16.1 0.00 0.00 0.00 59 1017.9
20260505094503 12 202 4.8 14.5 0.00 0.00 0.00 60 1017.9
20260505093615 11 205 1.6 9.7 0.00 0.00 0.00 61 1017.9
20260505092703 11 208 1.6 6.4 0.00 0.00 0.00 62 1017.9
20260505091815 11 211 1.6 8.0 0.00 0.00 0.00 61 1017.9
20260505090915 11 196 3.2 11.3 0.00 0.00 0.00 62 1017.9
20260505090003 10 0 0.0 0.0 0.00 0.00 0.00 59 1017.9
20260505085415 11 0 0.0 0.0 0.00 0.00 0.00 59 1017.9
20260505084515 11 198 0.0 4.8 0.00 0.00 0.00 58 1017.9
20260505083603 11 0 0.0 0.0 0.00 0.00 0.00 60 1017.9
20260505082715 10 0 0.0 0.0 0.00 0.00 0.00 60 1017.9
20260505081803 10 0 0.0 0.0 0.00 0.00 0.00 63 1017.9
20260505080903 10 0 0.0 1.6 0.00 0.00 0.00 66 1017.9
20260505080003 10 0 0.0 1.6 0.00 0.00 0.00 67 1017.9
20260505075415 10 0 0.0 0.0 0.00 0.00 0.00 68 1017.9
20260505074503 10 0 0.0 0.0 0.00 0.00 0.00 67 1017.9
20260505073615 10 0 0.0 0.0 0.00 0.00 0.00 67 1017.9
20260505063603 12 0 0.0 0.0 0.00 0.00 0.00 58 1017.9
20260505062703 13 0 0.0 0.0 0.00 0.00 0.00 57 1017.9
20260505061803 13 198 0.0 3.2 0.00 0.00 0.00 57 1017.9
20260505060903 13 0 0.0 1.6 0.00 0.00 0.00 58 1017.9
20260505060003 13 0 0.0 0.0 0.00 0.00 0.00 57 1017.9
20260505055403 13 0 0.0 0.0 0.00 0.00 0.00 56 1017.9
20260505054503 13 0 0.0 0.0 0.00 0.00 0.00 55 1017.9
20260505053603 14 0 0.0 0.0 0.00 0.00 0.00 53 1017.9
20260505052703 14 0 0.0 0.0 0.00 0.00 0.00 52 1017.9
20260505051803 14 198 0.0 6.4 0.00 0.00 0.00 52 1017.9
20260505050903 15 198 0.0 8.0 0.00 0.00 0.00 52 1017.9
20260505040903 16 0 0.0 1.6 0.00 0.00 0.00 45 1017.9
20260505040003 16 271 0.0 3.2 0.00 0.00 0.00 45 1017.9
20260505035403 16 271 0.0 3.2 0.00 0.00 0.00 45 1017.9
20260505034503 16 271 0.0 6.4 0.00 0.00 0.00 46 1017.9
20260505033603 16 0 0.0 0.0 0.00 0.00 0.00 46 1017.9
20260505032724 16 0 0.0 0.0 0.00 0.00 0.00 46 1017.9
20260505031803 16 0 0.0 0.0 0.00 0.00 0.00 46 1017.9
20260505030903 16 0 0.0 0.0 0.00 0.00 0.00 47 1017.9
20260505030003 16 0 0.0 0.0 0.00 0.00 0.00 47 1017.9
20260505025403 16 0 0.0 0.0 0.00 0.00 0.00 47 1017.9
20260505024503 16 271 0.0 3.2 0.00 0.00 0.00 48 1017.9
20260505023603 16 0 0.0 0.0 0.00 0.00 0.00 48 1017.9
20260505022703 16 332 0.0 8.0 0.00 0.00 0.00 48 1017.9
20260505021803 16 306 3.2 12.9 0.00 0.00 0.00 48 1017.9
20260505020903 16 327 0.0 11.3 0.00 0.00 0.00 47 1017.9
20260505020024 16 265 1.6 9.7 0.00 0.00 0.00 46 1017.9
20260505015403 16 289 1.6 12.9 0.00 0.00 0.00 45 1017.9
20260505014524 17 297 1.6 14.5 0.00 0.00 0.00 45 1017.9
20260505013624 17 283 1.6 22.5 0.00 0.00 0.00 44 1017.9
20260505012703 17 290 4.8 17.7 0.00 0.00 0.00 43 1017.9
20260505011803 18 282 6.4 22.5 0.00 0.00 0.00 41 1017.9
20260505010903 19 294 6.4 32.2 0.00 0.00 0.00 37 1017.9
20260505010024 20 273 1.6 16.1 0.00 0.00 0.00 32 1017.9
20260505005403 20 237 3.2 19.3 0.00 0.00 0.00 30 1017.9